Retour au catalogue

FALCON 9 R/B

LostMEO
NORAD 59599·ROCKET BODY·🇺🇸 United States

Lancé Apr 28, 2024 depuis Cape Canaveral Space Force Station

Loading…

Prochains Passages (prochaines 24 heures)

TLE

PériméSource: Space-Track

Époque: Aug 5, 2026, 11:17 UTC

1 59599U 24079B   26217.47075852 -.00000009  00000-0  00000+0 0  9994
2 59599  55.1240  98.9050 0002108  51.2366 130.8204  1.73013741 14382

Suivez FALCON 9 R/B en temps réel avec AllMySat

Download on the App Store